GFSGL_700_rhum_159.txt.gz
RH
93 96 85 80 64 44 27 19 14 13 13 13 13 12 11 9 8 8 12 18 16 23 43 59 68 68 71 73 83 84 85 80 48 38 43 49 51 99 96 81 89 74 57
94 92 92 82 58 38 25 17 14 14 15 15 15 15 14 13 12 10 8 9 10 9 10 13 50 69 76 75 77 82 89 83 78 96 66 51 59 94 100 98 65 91 67
88 89 74 64 48 29 22 16 15 15 16 17 17 17 16 15 14 14 12 11 9 9 8 14 16 40 78 86 88 85 89 85 87 96 99 95 94 98 95 99 100 87 87
81 79 73 63 44 25 19 15 16 17 18 20 21 20 19 18 17 16 15 14 13 11 10 9 10 25 27 61 85 90 92 92 96 90 98 99 100 100 97 84 100 100 93
78 79 74 67 44 23 17 16 17 20 22 23 22 23 23 22 20 18 17 16 15 14 12 11 9 9 13 22 31 70 94 93 97 97 98 99 97 100 98 89 99 100 99
77 80 77 69 38 22 17 17 19 22 25 26 26 26 25 24 22 20 18 17 16 16 15 14 12 10 7 6 8 11 64 91 96 97 97 98 99 99 99 99 99 99 99
79 83 81 62 33 21 18 19 23 26 27 28 29 30 28 26 23 21 20 20 18 17 16 16 15 12 10 8 6 10 7 32 92 96 96 97 98 98 98 98 98 99 100
82 86 79 47 25 21 18 24 29 30 31 33 34 34 32 30 28 26 25 23 21 20 18 17 16 15 13 10 8 6 6 5 43 71 94 96 97 97 98 96 96 98 95
90 91 70 37 21 19 25 30 32 35 37 39 39 37 36 34 32 30 29 27 25 23 22 21 19 17 14 12 10 8 7 5 6 30 36 59 96 96 98 97 98 97 99
93 89 56 25 22 33 38 29 34 41 43 43 42 41 40 38 37 36 34 32 31 29 26 24 22 18 15 12 9 8 7 6 5 5 4 4 34 21 91 96 95 96 98
91 76 38 24 39 51 30 34 43 47 48 47 45 42 43 42 42 40 39 36 35 34 30 26 22 20 17 14 11 8 7 7 6 5 5 4 4 6 4 4 8 64 93
84 55 27 35 57 33 31 41 49 50 48 43 38 35 35 39 42 43 42 41 39 36 34 27 22 19 15 12 10 9 7 6 6 5 5 5 4 4 4 3 3 3 4
73 36 29 61 49 25 32 42 44 38 29 23 23 22 25 30 34 36 40 44 45 41 37 32 26 18 14 11 9 8 7 6 6 5 5 5 4 4 4 4 4 4 3
65 30 52 70 26 23 27 28 25 22 24 33 28 21 21 24 30 34 39 44 49 47 42 37 31 26 22 15 10 8 7 7 6 6 6 5 5 5 5 5 4 4 4
56 38 71 52 22 21 21 22 23 25 34 35 26 24 22 23 31 37 42 50 54 51 45 39 33 28 23 19 14 11 8 7 6 6 6 5 5 5 5 5 5 5 5
49 58 83 30 22 22 24 25 27 28 30 28 27 25 22 23 36 48 55 58 59 53 47 39 34 28 22 18 15 13 11 8 7 7 6 6 6 6 6 6 5 5 5
73 88 62 25 24 27 29 31 34 35 35 33 29 26 25 30 52 57 58 62 61 56 49 43 33 24 18 15 13 11 10 9 8 7 7 7 7 7 7 7 7 7 7
89 90 44 28 27 30 34 36 38 39 35 32 31 30 36 50 60 45 58 66 63 59 51 35 23 16 13 11 10 9 8 8 8 8 8 9 9 10 9 9 9 8 8
88 80 36 25 28 33 36 35 38 36 32 29 32 62 60 53 38 45 72 72 66 55 35 20 16 13 11 10 10 10 11 12 13 14 14 14 14 13 13 13 12 12 11
78 42 30 28 29 28 29 32 32 31 27 47 78 72 37 27 37 76 79 70 55 33 20 14 12 11 11 12 14 15 17 18 18 19 20 20 20 19 18 16 15 14 14
61 37 25 22 23 24 25 27 28 26 59 71 56 52 27 45 84 86 77 55 32 17 12 13 14 15 15 18 21 24 25 26 26 25 24 23 22 21 20 19 18 16 15
46 31 34 25 18 19 22 26 30 49 30 44 44 30 61 88 90 77 48 23 14 14 15 16 17 19 22 27 30 30 30 29 29 28 26 25 24 23 22 22 22 22 21
75 92 73 27 18 19 54 59 30 28 46 31 42 83 92 90 73 35 17 14 16 18 18 19 22 26 30 33 33 32 32 32 31 30 29 29 29 29 29 30 30 30 29
97 92 48 27 25 33 28 21 33 30 30 72 93 93 90 56 22 15 16 20 21 21 21 24 31 36 37 36 36 35 35 34 34 34 36 38 40 41 41 40 39 36 33
91 66 38 37 31 23 23 28 30 54 93 95 94 78 30 16 17 21 24 25 24 23 27 35 41 40 39 39 38 39 38 37 38 41 44 47 50 50 49 47 45 41 37
72 56 42 33 30 31 32 44 87 96 95 88 46 18 18 23 28 29 29 26 25 28 37 44 44 43 42 42 43 43 42 44 48 53 56 58 59 59 58 56 52 47 44

GFSGL_700_rhum_162.txt.gz
RH
72 64 76 87 87 68 55 42 27 18 14 14 15 15 16 15 15 14 13 12 10 9 10 13 19 37 48 52 62 73 75 70 62 58 50 43 46 53 50 60 76 98 63
70 71 77 80 73 67 59 39 22 16 15 15 16 16 17 17 17 16 15 14 13 12 11 10 12 15 21 41 47 58 72 78 70 59 69 82 57 58 54 72 98 100 98
75 77 78 77 74 69 52 27 17 16 16 17 18 20 20 20 20 18 17 15 14 14 13 12 11 9 10 14 23 25 36 70 76 69 72 92 98 83 72 88 91 96 97
81 80 73 77 73 62 42 22 16 17 18 20 21 23 23 23 22 20 18 16 15 14 13 13 13 12 10 8 12 23 14 41 77 81 96 99 99 100 100 100 98 89 98
86 75 72 78 74 61 35 20 17 18 20 22 23 25 26 26 24 21 19 20 22 20 16 14 14 14 13 11 9 13 21 21 33 85 98 93 99 98 99 99 99 99 85
83 73 80 81 76 54 30 20 19 20 24 27 26 30 30 29 26 25 26 25 23 22 20 19 17 16 15 14 12 9 16 22 16 30 92 93 100 98 100 98 98 100 99
76 80 84 83 75 41 24 21 20 28 34 29 33 33 32 32 30 29 28 28 27 25 22 21 20 18 17 15 14 12 9 8 8 30 67 94 96 96 97 98 98 98 99
82 84 89 87 64 33 22 20 31 38 32 36 38 37 36 35 34 34 33 31 30 28 27 26 24 22 20 18 16 13 10 8 6 6 15 65 92 95 95 95 96 98 97
83 89 91 87 60 25 22 32 41 32 33 39 41 42 40 38 36 35 36 36 35 33 31 29 28 25 23 20 16 14 13 10 8 6 5 8 65 66 94 95 96 96 97
83 91 92 77 42 24 39 49 33 34 43 46 46 42 36 34 36 39 40 40 40 38 36 34 32 30 25 21 17 14 11 8 8 7 5 5 5 32 29 93 87 96 97
90 92 86 59 29 35 54 34 34 44 48 49 42 30 25 26 29 32 33 36 38 41 42 39 36 32 29 24 20 16 14 11 9 8 7 6 5 4 6 6 26 42 48
91 90 72 43 29 52 49 30 39 48 48 36 24 27 30 23 23 29 34 41 43 42 44 45 40 36 31 27 24 19 14 11 9 7 6 6 5 5 4 4 4 4 6
92 85 58 32 44 59 30 31 38 36 26 24 42 45 32 23 23 27 37 42 46 50 51 50 46 40 35 31 26 20 16 12 10 8 8 7 6 6 6 5 5 5 4
95 80 47 31 61 49 24 25 26 23 25 35 48 37 29 27 24 24 33 44 53 56 56 54 49 44 41 36 28 21 17 14 12 11 9 8 7 7 6 6 6 5 5
96 80 44 42 68 39 22 21 22 24 27 29 32 32 31 28 25 28 40 57 59 58 59 56 52 49 43 37 30 22 16 13 10 10 9 8 8 7 7 6 6 6 6
98 81 43 56 77 31 22 22 26 28 31 34 36 35 31 31 34 40 54 63 49 60 62 59 57 50 43 35 28 23 18 14 12 10 9 8 8 8 8 7 7 7 7
97 74 50 76 66 26 24 27 32 34 37 39 40 34 33 37 45 61 66 43 42 66 66 62 57 48 38 30 23 17 15 13 10 10 9 9 9 9 9 9 9 9 8
97 77 82 91 43 27 27 29 32 40 37 40 36 31 31 65 73 64 35 29 65 72 69 62 50 37 25 18 15 13 11 10 10 10 10 10 9 9 10 10 10 10 10
95 94 91 89 48 27 27 30 38 33 34 33 31 28 54 66 57 48 28 68 78 75 69 52 33 21 15 13 12 12 12 13 14 14 15 15 16 16 15 14 14 14 13
98 87 86 66 31 28 31 29 26 27 26 28 27 50 47 41 44 32 74 84 82 68 41 23 16 14 14 15 15 16 17 18 20 22 22 22 22 21 21 20 18 17 16
91 86 78 47 34 28 27 23 20 21 26 36 48 34 40 38 38 84 89 85 65 31 17 15 16 17 17 18 18 21 25 28 29 28 28 27 26 24 23 22 21 19 18
92 89 70 44 32 48 42 20 19 26 62 48 26 39 32 53 90 92 86 59 21 16 17 20 20 20 20 24 28 32 33 33 32 31 30 29 28 27 26 25 24 24 24
96 87 71 69 89 81 32 23 24 34 28 24 31 32 78 94 92 83 44 17 17 21 24 24 23 22 25 33 36 36 36 35 35 34 33 33 32 33 33 34 34 33 32
98 95 95 98 94 56 32 36 37 24 25 30 46 90 93 90 68 24 18 22 27 27 27 25 24 29 36 39 39 39 39 39 39 38 38 40 42 43 44 45 45 44 43
97 96 98 96 71 43 39 32 27 31 36 76 93 92 83 40 18 22 28 30 31 30 26 24 30 41 44 42 42 42 42 42 42 42 43 46 50 52 53 53 54 54 52
97 98 96 75 56 42 37 36 37 66 94 92 88 56 21 21 27 30 32 32 29 26 25 32 45 47 47 46 45 46 46 47 47 48 51 54 59 61 62 62 63 63 59

GFSGL_700_rhum_165.txt.gz
RH
84 87 76 69 67 67 68 68 62 42 23 16 15 16 18 18 18 18 17 16 15 14 13 12 11 10 9 11 15 26 24 38 50 65 62 60 55 49 44 39 39 36 30
86 85 73 69 69 67 67 68 57 32 18 16 18 19 20 20 21 20 18 17 16 15 14 14 13 12 11 10 10 16 24 34 42 48 65 64 71 66 55 55 52 49 45
80 82 75 78 73 65 67 67 52 24 17 18 20 21 23 23 22 20 18 17 20 21 18 15 14 13 13 12 11 9 16 31 31 47 51 68 98 98 92 85 78 83 79
80 76 83 84 70 68 68 66 41 21 18 20 22 24 26 26 25 22 22 27 26 25 24 22 21 19 15 13 13 12 10 15 15 37 60 61 77 96 97 100 100 100 99
80 85 89 77 74 70 70 58 31 21 20 24 28 27 28 28 28 27 27 27 28 28 26 23 21 20 18 18 16 13 12 10 10 9 44 66 71 82 97 99 99 100 99
91 95 83 78 75 72 71 47 26 21 24 32 30 32 33 32 31 30 32 32 31 29 28 26 25 23 21 19 17 16 14 12 10 7 13 40 77 76 86 96 98 100 98
94 87 82 79 75 79 65 41 26 23 35 35 35 38 38 36 34 34 33 31 31 32 31 30 28 27 25 23 21 19 16 14 12 9 6 6 38 75 88 93 96 96 98
88 87 81 76 83 80 59 31 24 32 38 33 36 40 40 38 34 32 31 32 33 34 35 34 32 30 29 27 24 21 18 15 11 10 8 6 8 45 88 96 96 96 96
92 80 75 80 87 78 46 25 32 45 35 35 42 44 40 34 30 28 30 32 35 37 38 36 36 34 32 30 26 24 21 17 13 10 8 7 6 8 42 88 95 94 96
78 72 76 86 88 67 30 32 50 38 36 42 46 44 32 27 28 29 28 36 44 45 44 41 40 40 36 33 30 28 24 18 15 11 8 7 6 5 5 9 60 94 95
71 76 82 87 79 47 28 47 45 33 40 47 45 30 26 39 43 29 31 40 42 41 44 47 46 44 42 38 35 32 29 26 20 15 12 9 7 6 5 5 4 18 63
73 81 85 84 65 35 37 52 37 35 44 43 27 29 48 49 39 27 26 27 31 38 45 50 50 49 46 42 39 36 32 28 24 18 14 10 8 6 6 6 5 5 5
78 85 88 80 51 31 51 49 29 36 37 26 25 46 48 44 38 34 32 34 42 50 52 54 53 52 49 46 42 38 34 28 24 20 17 15 12 10 9 8 7 6 5
85 92 92 73 40 37 57 42 26 28 24 24 34 35 34 34 33 33 39 45 49 56 53 53 57 55 51 48 45 40 35 30 26 23 20 17 15 11 9 8 8 7 8
95 95 93 73 38 45 60 34 23 22 22 27 33 37 40 40 40 43 46 55 63 55 36 53 59 58 54 51 46 40 34 27 23 19 16 13 12 12 10 10 9 8 8
96 98 94 73 40 52 68 33 22 22 31 36 36 42 42 47 37 35 54 66 59 29 38 63 65 61 57 51 44 37 30 24 18 15 14 12 11 10 10 10 10 9 8
98 96 95 81 48 64 71 28 23 26 33 34 43 40 39 35 29 41 61 54 47 30 63 68 66 62 56 46 34 23 18 15 12 12 11 10 10 9 10 10 9 9 9
96 96 95 81 56 84 58 28 27 28 31 40 39 33 30 28 32 54 42 44 34 63 73 72 66 58 42 26 18 14 13 13 13 13 13 14 14 13 13 13 13 13 13
96 96 96 84 89 92 52 33 28 30 37 32 28 25 25 34 50 35 41 34 66 78 76 71 51 32 19 15 15 16 16 16 16 17 18 18 20 20 20 19 18 17 16
96 96 95 95 92 88 52 28 31 31 27 25 22 23 44 54 30 36 34 74 83 81 69 41 21 16 17 18 18 18 18 20 21 23 24 24 24 24 23 22 20 19 18
96 96 98 88 83 64 36 31 27 26 24 21 22 49 56 25 31 34 81 86 83 62 30 17 18 21 22 21 21 22 25 28 29 30 29 29 28 26 25 24 23 22 21
97 98 91 82 80 56 37 30 53 50 23 24 30 35 25 30 42 86 88 81 49 21 18 22 24 24 24 23 23 28 32 34 34 33 33 32 31 30 29 28 28 27 26
99 98 92 91 84 62 62 92 90 35 27 32 31 25 31 56 90 89 72 31 18 21 25 26 27 25 24 24 31 36 37 37 36 36 37 36 36 35 35 35 35 35 34
99 97 96 96 93 94 98 96 58 32 34 28 29 37 85 94 88 55 21 20 25 27 28 28 25 22 24 33 40 40 40 40 40 40 40 40 40 41 42 43 44 45 46
98 97 97 98 98 99 96 68 44 38 32 36 59 98 92 80 33 19 23 26 28 29 26 24 22 24 33 39 41 43 43 44 44 45 44 45 46 48 50 52 55 56 56
97 97 97 98 99 97 73 52 44 42 49 93 99 91 62 21 21 24 27 28 26 23 22 22 25 34 40 42 45 46 47 48 49 48 48 50 53 56 58 60 62 63 65

GFSGL_700_rhum_171.txt.gz
RH
37 48 55 68 75 66 54 59 63 54 52 44 46 35 20 16 18 20 20 19 19 26 25 24 23 22 22 21 20 18 16 13 10 11 17 20 22 34 52 61 75 73 69
48 56 67 71 78 63 63 64 70 57 55 47 48 28 19 18 22 24 23 22 26 26 28 28 27 26 24 22 21 20 19 19 19 17 12 10 10 15 25 47 62 74 79
61 70 70 78 77 68 68 75 69 61 52 51 43 26 20 24 26 26 26 26 27 30 30 29 27 26 24 23 22 22 21 20 18 18 17 16 12 11 16 31 47 63 82
70 73 72 85 72 70 75 84 68 64 52 53 37 25 22 30 28 27 28 30 32 32 30 27 26 26 26 26 25 24 23 22 20 20 18 17 16 13 12 23 37 52 74
74 72 81 76 64 76 91 82 71 59 57 52 33 24 30 31 32 32 32 33 33 30 28 29 31 30 30 29 28 26 25 23 22 20 19 17 16 15 14 13 29 46 59
66 70 71 60 69 89 93 77 74 60 61 46 30 28 35 36 36 35 34 34 31 29 31 35 34 34 34 32 30 28 26 24 23 22 20 19 17 15 14 11 25 51 69
54 55 53 62 87 97 85 81 67 66 60 38 28 35 37 36 38 35 34 33 34 37 37 35 35 35 34 33 32 31 29 28 26 24 22 21 20 18 14 10 10 48 72
40 41 55 80 97 92 86 76 70 71 54 31 31 39 36 39 38 33 34 40 39 37 34 32 35 36 35 34 33 33 32 30 29 28 26 24 22 20 16 14 9 7 24
34 56 74 92 94 89 84 73 75 70 45 28 40 40 38 41 34 31 42 40 38 33 34 38 38 39 39 37 36 37 37 35 33 31 30 27 24 22 18 13 14 8 6
52 70 81 91 90 88 75 77 81 65 35 34 45 38 43 41 28 39 44 42 42 40 39 40 43 44 42 41 40 41 40 38 36 34 33 30 28 25 22 18 12 17 17
59 70 78 83 88 81 76 84 79 54 31 45 41 40 45 31 32 45 44 41 37 38 43 44 47 45 42 40 41 41 41 39 37 36 34 33 31 28 24 20 15 10 8
55 70 78 86 85 79 84 88 71 40 34 47 39 42 41 26 44 44 38 36 39 44 37 46 50 41 36 39 42 43 43 42 41 40 38 36 33 30 27 22 18 14 10
63 77 86 89 83 84 89 86 59 33 41 47 38 41 30 27 41 36 38 41 45 38 34 52 49 41 33 38 45 44 45 46 45 44 42 38 35 32 28 24 22 19 16
74 85 91 92 91 93 93 82 50 34 47 44 35 34 24 27 33 39 44 45 44 29 42 52 43 38 37 50 49 47 47 48 48 46 41 36 32 26 24 21 18 17 16
85 93 96 97 98 96 94 74 46 38 50 45 31 26 23 26 35 40 44 40 29 31 48 42 39 36 52 56 53 52 53 51 45 36 28 21 17 15 13 12 12 11 11
70 87 97 98 100 98 94 81 53 42 50 42 26 22 23 34 37 43 40 33 26 41 46 37 35 52 61 59 57 55 47 33 22 16 13 12 12 11 11 11 10 10 10
65 85 95 98 99 98 95 87 57 47 56 53 26 22 27 34 33 42 32 25 28 52 33 30 43 66 64 61 52 34 18 13 13 14 14 14 14 13 13 13 14 14 15
68 82 92 96 96 98 95 87 66 51 64 54 27 25 28 31 37 32 25 24 50 46 26 33 68 69 63 44 20 13 14 15 16 16 16 16 16 17 18 18 19 19 19
74 85 93 96 97 99 95 90 75 60 73 60 29 29 30 33 32 28 24 34 51 27 30 68 73 63 35 14 14 16 17 18 18 17 17 18 20 21 22 23 23 22 21
81 89 94 94 96 97 95 95 78 66 85 58 35 31 32 30 39 30 28 40 30 29 68 76 64 30 14 15 17 18 18 18 16 16 18 21 24 25 26 26 26 24 24
90 96 96 95 96 97 96 96 75 84 90 66 39 34 32 58 61 33 38 32 31 68 82 67 28 15 16 18 20 19 17 16 17 20 22 24 27 30 29 28 28 28 26
96 96 98 96 97 96 98 95 88 88 82 55 38 36 68 84 38 34 34 34 70 85 70 26 15 17 18 19 18 16 16 17 20 24 25 30 32 32 32 32 31 31 29
95 97 97 94 96 98 97 95 88 81 78 63 67 80 93 54 36 36 39 75 87 72 26 16 17 19 18 17 16 16 16 20 24 26 32 35 36 36 36 36 34 31 30
96 97 96 94 97 98 97 94 87 90 90 86 89 94 62 40 39 47 81 89 72 25 16 17 18 17 16 15 16 17 20 24 26 32 38 39 39 39 38 36 35 37 37
97 96 94 94 96 97 96 94 95 96 95 95 96 73 51 50 59 85 89 70 24 16 17 16 15 14 15 16 17 20 23 25 31 40 41 42 41 38 36 38 40 44 45
96 95 96 97 97 96 95 96 96 97 98 98 83 60 63 67 87 87 68 22 16 16 16 15 15 15 16 18 20 22 25 30 40 44 44 42 37 38 40 44 45 48 50

GFSGL_700_rhum_174.txt.gz
RH
69 67 36 39 43 52 60 57 54 49 54 60 54 44 42 36 23 18 21 22 22 25 26 27 27 27 27 25 24 22 22 22 21 20 19 18 18 18 16 14 19 29 43
73 65 39 43 53 62 62 58 46 50 65 61 57 44 43 33 20 24 26 25 25 26 29 29 29 27 25 24 24 24 23 23 22 21 21 20 20 19 18 19 18 18 21
77 54 47 54 63 64 58 57 44 59 74 63 54 48 41 31 22 29 28 26 28 31 31 30 28 27 29 28 28 27 26 24 23 22 21 20 19 18 17 18 18 18 22
76 57 59 66 66 64 62 53 54 74 74 68 53 50 39 28 27 30 28 29 32 33 31 29 31 32 30 30 29 28 27 26 24 23 22 21 20 19 18 16 16 18 20
69 64 63 69 71 69 64 53 70 83 74 63 55 51 36 27 32 34 34 33 34 32 31 34 34 31 30 30 29 28 28 27 26 24 23 21 20 19 18 18 16 15 17
60 62 72 68 70 63 56 64 86 80 77 60 59 46 32 32 36 36 35 34 34 34 37 36 32 32 31 30 29 28 27 27 26 26 24 23 22 20 18 18 18 16 14
68 75 65 65 56 48 61 81 89 81 71 62 59 43 31 36 38 36 36 34 37 38 38 34 34 33 31 30 29 29 29 30 29 29 28 27 25 23 21 19 19 17 16
72 62 59 42 34 54 75 89 86 82 65 66 58 39 34 41 37 38 34 34 38 37 37 38 36 35 35 33 30 31 32 32 32 31 29 28 27 25 24 22 20 19 17
62 42 25 32 49 70 83 90 87 70 66 70 55 35 41 42 38 40 31 38 38 41 40 38 39 38 38 35 34 35 34 34 34 33 32 31 30 28 27 26 25 23 20
25 28 28 48 62 74 88 90 76 64 71 71 48 36 47 40 42 35 30 40 41 42 38 42 39 41 40 38 36 36 36 37 37 38 37 37 34 32 30 30 28 26 23
31 27 36 54 65 80 85 80 69 68 78 68 35 42 44 42 43 29 36 42 41 38 41 42 37 45 43 36 32 33 35 35 35 35 36 38 39 37 35 33 30 28 24
33 32 47 60 71 82 80 77 70 76 80 60 35 45 43 45 41 28 43 41 40 43 46 36 38 47 43 37 34 38 40 39 38 38 39 40 42 41 39 35 32 29 24
30 38 50 63 75 84 83 80 78 82 78 55 36 47 42 44 34 30 40 37 44 45 45 29 42 47 41 37 39 46 45 43 43 42 44 44 42 39 34 29 26 24 23
37 41 52 72 79 87 86 87 86 85 76 50 39 50 41 41 27 28 32 38 44 44 37 27 47 44 38 38 47 47 46 44 42 39 36 32 26 20 18 14 14 13 12
34 49 65 78 88 89 89 91 86 84 76 49 42 51 40 32 24 25 32 39 45 42 27 26 51 38 32 41 54 49 45 40 27 16 11 10 10 10 10 10 10 10 9
48 51 56 68 84 87 85 86 88 89 76 43 45 51 39 26 23 27 37 36 44 34 25 34 53 30 32 56 57 50 36 17 10 10 10 12 12 12 13 12 13 13 13
51 50 53 62 83 87 82 83 92 89 75 52 49 55 38 24 23 30 32 36 38 28 26 52 43 29 51 62 55 37 14 9 10 12 13 14 14 13 14 14 15 17 17
59 59 59 66 85 84 81 86 98 94 72 52 53 61 40 25 25 28 31 36 32 29 34 47 30 42 67 61 40 14 10 11 12 13 13 13 13 14 16 18 19 21 21
68 68 67 73 83 86 86 88 99 94 88 67 61 69 48 27 29 31 34 33 38 34 44 34 37 69 67 46 15 11 11 12 13 13 12 13 15 17 19 22 24 23 23
80 78 79 82 85 86 88 93 95 96 94 83 70 81 48 32 32 32 33 52 39 41 37 35 70 72 51 17 11 12 13 13 12 12 13 15 18 21 24 26 26 26 25
82 86 90 92 92 93 94 94 95 96 93 88 86 88 52 36 33 34 64 65 37 38 37 72 74 56 18 12 13 13 13 13 13 14 16 20 21 26 30 29 29 28 27
82 90 96 97 96 96 96 97 96 94 91 90 90 85 60 38 43 73 82 50 39 44 73 78 61 21 13 13 13 12 12 13 14 17 20 23 27 32 33 33 32 30 28
87 92 98 96 96 97 97 96 95 94 93 92 86 85 72 75 84 86 64 44 49 74 81 66 23 14 13 13 12 13 13 14 16 20 23 27 33 36 36 35 33 28 24
95 99 97 96 98 97 96 97 96 95 95 88 85 88 94 91 91 71 52 56 75 82 71 27 15 14 14 13 13 13 15 16 19 22 26 34 38 40 38 35 29 31 31
100 100 97 100 97 96 96 95 95 97 95 92 87 93 96 97 78 58 62 76 86 76 31 16 15 14 14 14 15 15 16 19 22 24 30 39 42 42 36 32 32 35 37
96 97 100 97 96 96 96 96 96 97 95 94 92 91 94 89 69 68 78 89 80 39 18 15 15 15 16 16 17 18 19 21 24 28 39 45 44 38 33 36 37 38 40